RH
88 82 84 84 87 83 85 90 96 97 95 93 95 95 95 72 82 84 71 63 58 68 70 77 83 74 64 59 49 48 70 72 54 44 33 23 25 23 24 26 22 24 32 42 51
88 93 94 95 93 90 87 87 86 93 97 96 95 95 94 68 90 73 58 53 57 61 71 77 74 64 67 61 55 62 73 60 38 34 28 27 26 28 27 28 27 30 38 49 50
82 83 83 86 88 94 97 92 90 86 92 96 98 94 90 68 71 40 52 52 57 72 62 68 62 58 65 56 54 58 68 48 37 35 32 34 28 27 30 35 28 34 53 53 48
86 86 85 87 85 84 86 86 94 91 86 86 94 96 96 84 64 51 43 60 72 74 70 68 60 69 66 65 50 60 52 49 44 38 36 37 27 29 31 29 24 27 46 51 49
76 74 76 79 84 87 88 85 84 87 95 86 88 97 98 73 60 42 44 53 76 80 74 73 62 66 68 55 48 57 49 40 41 38 39 35 37 32 31 27 23 29 45 49 46
85 88 88 88 87 88 85 85 88 85 88 97 89 90 94 94 50 39 42 75 71 78 78 66 59 54 54 50 49 42 47 45 40 42 39 42 40 36 32 26 25 35 46 45 43
81 88 87 85 87 85 86 88 83 85 88 91 92 85 78 78 52 43 43 66 71 72 68 60 49 47 46 50 37 39 48 46 46 44 46 41 50 46 33 29 29 31 39 42 40
83 84 88 86 85 85 84 86 86 85 84 87 87 85 83 54 62 58 50 63 68 68 70 59 56 52 50 44 41 45 49 66 47 44 43 48 66 44 34 35 32 31 35 40 39
84 81 82 84 83 84 84 84 85 83 75 79 84 77 76 37 58 59 50 43 67 74 76 64 57 59 53 70 66 48 68 64 51 40 45 52 58 43 33 35 36 32 33 37 38
83 84 86 86 85 82 83 83 74 63 65 65 69 75 54 45 37 52 49 41 46 70 74 55 59 68 67 79 86 62 60 50 51 40 46 53 59 45 32 34 36 35 32 34 36
74 81 85 85 85 86 87 74 47 41 48 67 64 64 35 33 37 41 46 42 44 76 85 59 81 84 67 67 58 43 41 47 35 33 51 55 56 51 39 33 40 36 36 32 34
74 80 84 86 88 89 91 74 54 74 91 57 46 48 53 64 64 53 45 57 63 80 67 67 87 61 49 54 58 48 48 48 35 41 47 50 52 43 41 37 34 39 36 32 32
78 82 86 90 90 87 68 59 75 66 99 71 45 48 41 39 56 73 50 53 62 73 70 71 58 49 51 53 53 52 56 52 44 36 32 40 46 38 34 36 32 29 30 29 31
80 84 85 89 74 66 58 66 82 69 98 55 55 47 39 36 55 48 74 52 62 63 51 62 45 53 52 57 53 65 44 44 40 35 50 35 61 29 29 31 34 34 28 29 30
84 86 88 90 86 72 64 65 72 75 95 36 55 47 31 43 40 66 66 82 62 60 57 63 57 50 56 51 46 56 41 44 46 45 54 48 54 39 23 30 32 34 30 24 31
85 88 89 79 72 69 71 69 76 96 92 40 46 66 48 40 42 32 77 92 58 63 48 54 47 50 44 38 41 39 50 47 47 56 84 60 54 48 29 25 24 26 32 26 24
88 87 89 80 67 71 76 77 96 96 32 47 53 58 48 53 46 44 48 86 100 98 91 66 72 41 40 47 45 55 62 98 98 97 91 42 56 43 23 18 20 22 24 30 24
83 59 74 62 69 75 75 90 98 52 40 46 57 54 62 52 56 59 58 69 68 79 75 93 97 58 37 45 52 69 73 88 78 92 71 34 54 45 26 22 16 16 19 24 28
73 58 56 65 73 78 92 88 81 56 53 60 50 55 59 64 78 58 56 97 70 64 77 77 60 42 38 37 40 68 82 45 58 44 59 53 33 23 21 20 20 20 18 27 27
81 61 67 74 83 77 97 77 66 48 49 62 81 59 76 89 94 72 58 73 91 54 50 97 78 44 39 34 33 52 44 67 86 94 60 48 36 35 27 27 24 26 24 22 28
80 65 74 80 74 93 94 81 60 41 44 79 93 72 68 87 90 87 63 48 40 50 49 66 80 90 41 48 48 49 54 54 67 75 82 59 42 24 31 27 26 26 26 25 33
59 85 69 74 94 95 91 75 54 47 44 58 59 60 56 55 87 86 74 57 59 55 58 57 79 96 70 37 34 37 49 55 83 81 86 80 64 24 24 23 23 25 27 24 33
86 72 61 68 90 89 68 57 50 55 53 58 53 54 58 64 92 71 71 76 61 62 56 62 93 96 66 50 41 47 42 60 63 65 74 72 52 22 23 24 26 31 30 30 35
96 87 91 98 98 91 85 71 72 48 48 45 49 47 63 78 66 82 94 71 63 72 71 58 93 74 83 72 74 63 65 47 63 64 60 59 39 27 30 28 30 32 32 32 35
93 85 66 86 90 84 88 94 87 91 56 57 60 55 63 96 88 90 70 77 66 82 90 94 93 76 64 52 60 64 69 71 72 60 59 44 36 27 31 31 30 32 33 35 36
94 94 84 88 62 83 95 88 78 72 76 65 80 60 68 89 72 96 92 88 85 95 100 100 92 77 76 58 55 69 55 63 55 57 52 44 38 24 20 28 30 31 34 37 37
67 77 94 76 87 92 89 86 83 81 88 72 78 68 84 84 71 69 75 73 65 95 99 98 92 89 84 55 57 73 57 52 55 47 47 58 42 30 24 28 32 32 33 35 37
Wind_Speed
18 17 18 17 18 19 20 21 21 20 19 17 16 15 15 18 16 17 18 18 7 14 11 13 15 15 15 5 10 6 5 8 14 12 11 6 5 3 6 7 6 5 4 20 31
21 20 20 19 19 18 19 20 20 21 21 20 17 16 17 18 16 25 24 22 21 14 15 19 16 15 11 13 6 8 6 12 7 6 4 4 4 8 1 8 5 8 10 29 29
22 21 21 22 20 21 19 19 20 20 21 20 21 16 16 15 12 3 5 7 19 17 22 21 19 14 13 10 13 8 9 14 5 2 6 5 5 6 5 7 8 12 16 18 21
23 21 21 20 20 20 22 22 22 21 20 20 20 18 15 9 7 5 12 1 15 16 22 24 17 17 12 13 14 8 17 18 14 3 2 3 2 4 8 1 6 18 21 17 16
22 22 22 22 22 22 22 22 23 24 21 19 19 19 13 11 14 25 13 5 15 19 24 17 15 15 14 14 12 21 14 12 16 4 2 6 8 6 8 5 4 22 21 18 15
23 22 21 22 23 23 24 24 23 23 23 20 17 18 14 21 16 13 8 10 17 23 22 17 8 15 12 19 18 5 18 18 9 7 6 7 7 7 6 5 6 18 18 16 16
24 23 22 22 22 24 23 24 23 23 23 22 20 17 19 20 16 6 11 17 22 22 14 20 24 9 15 11 12 15 8 9 14 9 7 8 11 14 11 9 9 11 12 14 14
23 23 23 23 24 24 24 25 25 24 24 23 21 20 18 19 25 36 19 14 18 19 20 17 15 2 6 7 6 14 8 12 12 17 8 9 5 17 12 8 10 10 10 13 15
23 24 24 24 25 25 27 27 29 30 28 24 21 19 19 13 33 32 29 23 16 16 14 11 12 3 5 5 5 10 9 17 13 20 12 12 3 15 14 12 12 11 11 12 13
25 26 26 25 25 26 27 29 32 35 24 21 25 13 16 15 22 32 30 27 15 11 7 8 4 5 6 9 10 9 14 12 18 11 20 15 12 10 4 11 15 10 11 14 13
26 27 27 27 27 26 26 21 8 6 9 10 9 13 18 14 17 18 23 22 19 13 10 15 10 15 17 14 13 13 13 16 15 17 15 19 12 16 11 7 7 15 9 14 16
27 27 27 26 26 24 20 7 12 10 9 17 20 20 24 25 11 15 20 19 21 19 16 10 18 14 14 16 16 19 13 8 10 7 6 7 13 15 15 13 9 9 10 11 16
26 26 26 25 25 18 15 15 7 9 5 19 22 20 23 20 22 17 20 21 21 20 23 16 10 16 18 15 17 17 13 10 6 7 2 3 9 15 14 18 17 16 12 12 19
24 25 26 25 13 12 14 8 5 4 4 9 5 6 18 17 17 17 11 21 13 21 19 17 17 22 16 20 16 16 12 14 8 3 3 9 5 9 23 22 18 18 16 14 15
24 25 23 19 15 9 15 13 5 2 4 4 4 16 9 18 8 15 16 10 20 12 16 12 17 17 21 18 18 12 11 13 8 5 5 8 3 6 6 14 20 17 20 17 12
24 24 23 14 12 10 9 10 3 2 6 5 4 5 8 19 16 6 14 10 6 11 19 12 4 15 12 11 12 8 4 6 0 1 8 13 10 6 7 10 18 19 17 19 15
24 24 22 12 7 12 8 4 2 3 10 7 8 11 13 12 18 17 17 14 5 8 9 15 4 5 13 9 6 5 8 3 4 4 5 4 11 13 3 5 3 17 19 19 16
22 22 10 11 10 7 2 2 4 7 11 14 15 15 9 8 9 14 15 15 14 11 7 9 5 11 10 15 7 17 10 4 6 4 5 3 6 6 19 9 6 5 10 18 18
20 13 9 5 9 2 1 2 3 8 9 11 17 11 7 3 4 12 17 7 14 16 6 10 8 13 10 13 7 10 8 2 3 5 1 5 5 5 5 3 3 8 3 11 17
10 9 3 9 7 4 1 5 4 10 11 5 5 7 8 7 3 4 7 5 6 16 12 2 7 16 12 4 6 8 8 6 2 1 3 6 4 5 8 7 7 8 7 5 10
6 3 6 10 3 1 2 4 10 11 10 2 5 6 5 5 6 3 3 7 17 17 17 9 3 1 3 6 11 3 7 5 4 3 1 2 3 4 6 3 10 7 7 7 9
4 3 9 9 1 0 3 7 14 15 11 8 6 8 9 8 2 3 3 4 11 7 19 11 5 3 8 5 1 8 7 12 4 4 3 3 5 4 5 4 3 9 8 5 9
2 3 5 7 2 2 8 12 12 10 9 4 6 2 8 7 4 3 4 5 6 5 10 9 2 3 7 1 3 1 6 4 2 3 5 4 4 3 3 2 6 10 8 4 8
1 3 1 3 1 3 7 7 7 9 12 8 9 9 5 5 6 4 4 2 5 6 9 9 3 5 5 6 7 4 4 7 5 8 3 6 9 5 5 5 7 8 7 6 7
2 1 3 3 1 8 8 3 10 6 7 6 4 7 9 2 4 3 2 2 1 7 4 3 4 3 5 0 5 4 5 6 8 9 12 12 14 3 8 9 7 8 8 7 7
3 3 2 4 7 6 4 3 10 12 5 5 3 8 9 4 3 4 2 1 3 5 2 5 2 5 4 8 6 6 7 12 16 8 11 9 18 7 2 8 8 9 9 8 7
2 3 2 5 3 3 2 6 8 11 2 8 12 7 6 7 6 4 6 6 1 3 3 4 2 2 4 7 8 8 16 13 14 17 16 15 14 15 2 7 8 9 9 9 9
Wind_Direction
332 334 331 334 338 329 322 318 322 322 325 304 310 310 311 316 299 283 255 237 251 226 209 197 216 213 196 216 226 240 232 236 231 247 258 65 113 43 339 106 100 56 355 141 144
341 342 341 331 325 322 326 328 316 317 318 323 302 308 309 316 298 279 263 247 233 215 210 218 202 196 199 207 203 207 219 228 237 273 227 140 169 142 140 141 105 80 103 128 146
333 331 326 324 329 333 325 317 320 318 310 313 319 297 305 320 296 232 342 240 210 202 211 213 209 195 210 205 210 218 228 234 248 337 357 340 202 143 179 193 169 146 138 142 153
334 332 332 327 325 322 318 320 319 312 313 304 308 308 297 301 262 109 346 214 195 193 200 223 205 202 213 213 206 255 213 253 278 88 58 286 284 237 173 234 165 156 150 152 163
326 322 322 321 323 321 319 315 310 308 303 308 303 309 292 245 242 274 292 259 191 192 215 212 221 208 215 210 221 216 244 234 236 146 226 277 274 236 208 140 53 138 149 161 170
325 327 329 326 322 320 318 314 308 305 299 297 302 300 283 255 267 269 275 197 198 198 215 215 220 214 218 245 209 206 219 244 253 179 196 234 260 247 249 173 137 146 157 166 177
328 325 328 325 322 320 318 314 310 304 298 290 290 291 269 250 268 265 261 221 207 206 212 228 218 222 232 259 259 224 226 240 238 227 235 164 241 248 234 202 161 158 166 170 181
327 325 322 322 320 318 315 310 306 299 293 281 275 273 262 252 251 260 258 242 216 220 229 235 286 4 238 300 287 232 207 228 212 221 203 145 239 215 217 215 173 186 175 178 183
324 323 320 317 317 316 314 309 301 291 280 273 266 249 266 242 223 236 227 232 222 221 226 218 249 158 247 238 255 224 217 226 240 206 204 187 218 235 208 204 187 190 186 180 180
326 322 320 316 314 312 314 310 300 285 274 258 241 258 262 251 236 218 224 219 217 205 206 204 192 168 228 201 205 215 212 245 219 212 200 207 219 285 221 195 193 200 191 176 179
328 325 322 317 313 310 314 320 308 315 205 260 309 239 285 269 249 210 205 212 205 196 194 187 181 201 204 221 227 244 223 216 253 207 187 218 215 225 245 220 243 194 203 181 180
328 324 322 319 314 308 301 268 286 334 292 272 265 257 258 279 275 238 202 193 204 203 193 172 211 196 217 206 226 247 269 281 230 122 148 220 240 241 218 210 207 208 208 202 174
329 327 325 323 316 304 279 294 331 351 285 282 251 242 236 233 249 246 216 197 204 204 197 201 192 197 201 214 216 237 242 255 282 120 202 307 271 252 232 220 199 202 208 223 175
328 328 326 328 314 336 308 343 348 356 275 271 216 254 223 219 242 212 299 188 200 204 207 216 220 190 199 210 216 229 218 244 250 129 234 155 271 240 225 216 212 194 198 207 178
325 325 325 326 296 302 323 325 329 287 289 29 347 293 198 203 170 208 239 286 201 201 203 194 205 211 204 207 210 231 229 215 228 214 303 229 265 261 267 207 207 204 191 196 194
322 320 324 324 310 319 323 314 314 253 251 311 324 248 239 202 225 224 163 204 248 206 202 214 293 208 207 210 210 186 114 282 152 205 259 240 240 255 243 186 202 201 198 191 187
318 317 317 302 296 319 334 335 281 239 323 347 345 341 314 228 216 230 211 195 144 161 199 191 229 217 176 181 164 195 159 127 170 190 224 177 215 248 239 57 184 188 194 189 183
314 320 312 326 329 307 0 7 251 300 316 347 346 313 276 318 226 224 239 213 206 225 165 189 183 231 196 180 179 179 173 164 182 189 199 174 233 226 242 253 156 64 187 179 180
321 323 339 358 341 11 77 275 281 346 340 330 330 283 259 342 246 223 221 221 206 205 198 180 202 179 172 158 166 186 207 154 353 267 67 194 243 326 212 117 131 143 102 168 173
313 305 31 346 338 101 306 280 298 330 334 324 307 331 344 336 185 229 204 214 223 231 222 209 181 172 171 142 229 194 172 211 33 229 228 205 208 222 204 189 170 155 179 195 155
287 335 21 350 358 65 276 283 317 333 325 315 318 313 344 1 306 205 214 252 198 197 229 177 334 159 128 204 173 135 194 233 146 180 229 335 239 324 27 56 169 169 174 211 160
329 328 3 340 298 152 272 298 307 319 315 276 264 287 287 318 284 160 255 350 8 317 208 203 137 139 205 233 237 206 194 197 143 248 219 174 280 32 40 15 65 153 176 178 141
14 309 308 335 346 318 307 319 309 327 306 295 299 301 322 324 320 225 312 347 338 335 205 156 198 135 155 37 51 220 228 170 206 40 226 156 253 69 55 39 73 101 109 105 124
54 342 312 34 157 291 329 315 327 319 301 288 277 306 297 323 331 292 218 297 344 23 315 132 139 167 176 182 138 157 217 236 172 217 233 239 261 173 139 111 102 104 117 124 123
355 7 337 313 345 324 312 267 303 337 316 311 299 274 298 259 302 265 173 32 248 92 348 101 144 183 281 150 113 147 192 202 204 203 209 246 262 303 157 157 146 134 128 137 146
10 340 327 288 309 304 313 337 321 338 302 289 211 311 331 298 304 312 28 173 209 62 53 353 143 189 231 247 245 200 217 210 225 214 244 237 247 246 81 121 130 145 144 155 156
348 290 273 273 278 296 13 311 324 328 316 339 332 311 302 345 311 315 310 348 32 124 113 116 99 70 246 224 223 246 223 224 219 218 210 223 239 276 139 144 166 152 155 165 165